📊 Raw Sensor Data

Showing records 36576 to 36600 of 84,899 total

ID Distance (ft) Battery V Battery A Int Temp (°F) Int Humid (%) Ext Temp (°F) Solar V RSSI SNR Time Stamp
48336 15.4 3.93 0 81 43 79 5.10 -70 8 08/05/2025 11:30 AM
48335 15.4 3.93 0 81 42 77 5.10 -70 8 08/05/2025 11:15 AM
48334 15.4 3.93 0 80 42 82 5.10 -69 8 08/05/2025 11:00 AM
48333 15.4 3.93 0 79 42 81 5.10 -69 8 08/05/2025 10:45 AM
48332 15.4 3.93 0 77 42 80 5.10 -70 8 08/05/2025 10:30 AM
48331 15.4 3.93 0 75 42 79 5.10 -71 7 08/05/2025 10:15 AM
48330 15.4 3.98 0 74 42 78 5.10 -70 8 08/05/2025 10:00 AM
48329 15.4 4.02 0 73 43 77 5.10 -71 8 08/05/2025 09:45 AM
48328 15.4 3.93 0 72 43 76 5.10 -71 7 08/05/2025 09:30 AM
48327 15.4 3.93 0 70 43 75 5.10 -69 8 08/05/2025 09:15 AM
48326 15.4 3.93 0 69 43 74 5.10 -70 8 08/05/2025 09:00 AM
48325 15.4 3.93 0 68 44 72 5.10 -70 8 08/05/2025 08:45 AM
48324 15.3 3.93 0 66 44 71 5.10 -70 7 08/05/2025 08:30 AM
48323 15.4 4.12 0 65 43 70 5.10 -70 8 08/05/2025 08:15 AM
48322 15.3 3.93 0 64 42 70 5.10 -69 8 08/05/2025 08:00 AM
48321 15.4 4.14 34 63 42 70 4.50 -69 8 08/05/2025 07:45 AM
48320 15.3 3.94 26 61 42 69 4.50 -70 8 08/05/2025 07:30 AM
48319 15.2 3.96 8 59 42 66 4.50 -70 8 08/05/2025 07:15 AM
48318 15.2 3.86 0 56 42 64 4.50 -68 8 08/05/2025 07:00 AM
48317 15.1 3.86 -23 54 43 59 4.50 -68 8 08/05/2025 06:45 AM
48316 15.1 3.85 -30 52 43 56 4.50 -68 8 08/05/2025 06:30 AM
48315 15.0 3.83 -10 51 43 53 4.20 -68 8 08/05/2025 06:15 AM
48314 15.0 3.85 -5 51 43 53 0.80 -68 8 08/05/2025 06:00 AM
48313 15.0 3.85 -5 51 43 53 0.00 -68 8 08/05/2025 05:45 AM
48312 15.0 3.93 -5 51 44 54 0.00 -68 8 08/05/2025 05:30 AM